Location: La Comballaz
(46.3780°N, 7.0817°E)
Time: 20:10:32
(UTC+00:00)

N. Korean satellite - Pass Details

Date: 16 December 2021
Orbit: 446 x 492 km, 97.3° (Epoch: 18 January)

Event Time Altitude Azimuth Distance (km) Brightness Sun altitude
Rises 05:16:50 0° 6° (N) 2,462 10.1 -18.4°
Enters shadow 05:17:32 - 4° (N) 2,170 9.8 -18.3°
Exits shadow 05:25:13 11° 217° (SW) 1,522 8.9 -17.0°
Drops below altitude 10° 05:25:23 10° 216° (SW) 1,589 9.0 -17.0°
Sets 05:27:27 0° 209° (SSW) 2,454 10.0 -16.6°
